Location: Sungai Bunut
(2.6333°N, 113.7333°E)
Time: 15:10:51
(UTC+00:00)

Transit 4A - All Passes

Search period start: 03 December 2023 00:00
Search period end: 13 December 2023 00:00
Orbit: 864 x 979 km, 66.8° (Epoch: 02 December)

Date Brightness Start Highest point End Pass type
(mag) Time Alt. Az. Time Alt. Az. Time Alt. Az.
03 Dec - 10:39:46 10° S 10:45:14 31° ESE 10:50:44 10° NE visible
03 Dec - 12:26:21 10° WSW 12:31:19 24° WNW 12:36:20 10° NNW visible
03 Dec - 21:53:16 10° NE 21:55:20 12° ENE 21:57:22 10° E visible
03 Dec - 23:35:52 10° NW 23:41:28 49° WSW 23:47:02 10° S daylight
04 Dec - 10:48:10 10° S 10:54:17 52° ESE 11:00:27 10° NE visible
04 Dec - 12:37:21 10° W 12:40:28 14° WNW 12:43:35 10° NW visible
04 Dec - 22:00:06 10° NNE 22:04:27 21° ENE 22:08:46 10° ESE daylight
04 Dec - 23:45:36 10° NW 23:50:30 28° WSW 23:55:23 10° SSW daylight
05 Dec - 10:57:00 10° SSW 11:03:20 86° ESE 11:09:44 10° NNE visible
05 Dec - 22:08:12 10° N 22:13:33 37° ENE 22:18:50 10° SE daylight
05 Dec - 23:56:07 10° WNW 23:59:32 16° WSW 00:02:59 10° SW daylight
06 Dec - 09:24:00 10° SE 09:26:21 12° ESE 09:28:42 10° E daylight
06 Dec - 11:06:12 10° SSW 11:12:24 57° WNW 11:18:39 10° N visible
06 Dec - 22:16:48 10° N 22:22:37 65° ENE 22:28:20 10° SSE daylight
07 Dec - 09:30:44 10° SSE 09:35:25 22° ESE 09:40:08 10° ENE daylight
07 Dec - 11:15:50 10° SW 11:21:29 34° WNW 11:27:11 10° N visible
07 Dec - 22:25:49 10° NNW 22:31:39 73° WSW 22:37:24 10° SSE daylight
08 Dec - 09:38:45 10° S 09:44:29 36° ESE 09:50:15 10° NE daylight
08 Dec - 11:26:04 10° WSW 11:30:35 20° WNW 11:35:10 10° NNW visible
08 Dec - 20:51:31 10° NE 20:54:35 14° ENE 20:57:37 10° E visible
08 Dec - 22:35:15 10° NW 22:40:41 41° WSW 22:46:05 10° S daylight
09 Dec - 09:47:17 10° S 09:53:32 61° ESE 09:59:49 10° NNE daylight
09 Dec - 11:37:48 10° W 11:39:45 11° WNW 11:41:41 10° NW visible
09 Dec - 20:58:57 10° NNE 21:03:41 25° ENE 21:08:23 10° SE visible
09 Dec - 22:45:11 10° WNW 22:49:43 24° WSW 22:54:14 10° SSW daylight
10 Dec - 09:56:14 10° SSW 10:02:35 81° WNW 10:08:58 10° NNE daylight
10 Dec - 21:07:15 10° N 21:12:46 44° ENE 21:18:14 10° SE visible
10 Dec - 22:56:09 10° W 22:58:46 13° WSW 23:01:23 10° SW daylight
11 Dec - 08:22:13 10° SE 08:25:36 15° ESE 08:28:59 10° ENE daylight
11 Dec - 10:05:34 10° SW 10:11:39 49° WNW 10:17:46 10° N daylight
11 Dec - 21:15:59 10° NNW 21:21:49 78° ENE 21:27:35 10° SSE visible
12 Dec - 08:29:33 10° SSE 08:34:39 26° ESE 08:39:47 10° NE daylight
12 Dec - 10:15:21 10° SW 10:20:44 29° WNW 10:26:09 10° N daylight
12 Dec - 21:25:07 10° NNW 21:30:51 61° WSW 21:36:33 10° S visible
